FW6128 Weather Reports


time (UTC)temp
C
wind
direction
speed
KPH
gust
KPH
rain 1hr
cm
rain 24hr
cm
rain mn
cm
humidity
%
barometer
mb
20260505200355 22 113 6.4 11.3 0.00 0.00 0.05 92 1010.2
20260505195845 22 113 6.4 11.3 0.00 0.00 0.05 92 1010.2
20260505195335 22 90 8.0 11.3 0.00 0.00 0.05 92 1010.2
20260505193805 22 113 6.4 11.3 0.00 0.00 0.05 92 1010.2
20260505193254 22 113 6.4 9.7 0.00 0.00 0.05 91 1010.2
20260505192234 22 90 6.4 9.7 0.00 0.00 0.05 92 1010.2
20260505191724 22 113 4.8 11.3 0.00 0.00 0.05 92 1010.2
20260505191214 22 90 6.4 11.3 0.00 0.00 0.05 91 1010.2
20260505190703 22 90 6.4 11.3 0.00 0.00 0.05 91 1010.2
20260505190153 22 113 8.0 11.3 0.00 0.00 0.05 91 1010.2
20260505185644 22 113 6.4 12.9 0.00 0.00 0.05 91 1010.2
20260505185132 22 68 6.4 12.9 0.00 0.00 0.05 91 1010.2
20260505184623 22 113 6.4 11.3 0.00 0.00 0.05 91 1010.2
20260505184112 22 113 4.8 9.7 0.00 0.00 0.05 91 1010.3
20260505183602 22 113 4.8 11.3 0.00 0.00 0.05 91 1010.4
20260505183053 22 113 6.4 11.3 0.00 0.00 0.05 91 1010.5
20260505182542 22 113 6.4 9.7 0.00 0.00 0.05 91 1010.4
20260505130256 19 23 4.8 9.7 0.00 0.00 0.00 90 1012.3
20260505124725 18 68 0.0 9.7 0.00 0.00 0.00 91 1011.9
20260505124216 18 113 4.8 9.7 0.00 0.00 0.00 91 1011.7
20260505123706 18 90 4.8 6.4 0.00 0.00 0.00 91 1011.9
20260505122646 17 45 3.2 9.7 0.00 0.00 0.00 91 1012.1
20260505122135 17 45 4.8 11.3 0.00 0.00 0.00 92 1012.0
20260505120605 16 45 4.8 9.7 0.00 0.00 0.00 92 1012.4
20260505114525 16 68 0.0 6.4 0.00 0.00 0.00 92 1012.1
20260505114014 16 45 0.0 6.4 0.00 0.00 0.00 92 1012.0
20260505113505 16 45 3.2 6.4 0.00 0.00 0.00 92 1012.0
20260505112954 15 45 3.2 6.4 0.00 0.00 0.00 92 1012.0
20260505112444 15 45 3.2 6.4 0.00 0.00 0.00 92 1011.9
20260505111934 15 45 3.2 6.4 0.00 0.00 0.00 92 1011.9
20260505111423 16 68 0.0 0.0 0.00 0.00 0.00 92 1011.7
20260505110913 16 68 0.0 0.0 0.00 0.00 0.00 92 1011.6
20260505110404 15 90 0.0 0.0 0.00 0.00 0.00 92 1011.7
20260505101732 15 90 0.0 0.0 0.00 0.00 0.00 92 1011.5
20260505101222 15 90 0.0 3.2 0.00 0.00 0.00 92 1011.5
20260505100202 15 90 3.2 6.4 0.00 0.00 0.00 92 1011.2
20260505095137 15 113 0.0 0.0 0.00 0.00 0.00 91 1011.2
20260505094634 15 68 0.0 0.0 0.00 0.00 0.00 92 1011.3
20260505094121 15 90 0.0 0.0 0.00 0.00 0.00 92 1011.2
20260505093611 15 90 0.0 0.0 0.00 0.00 0.00 91 1011.1
20260505093101 15 68 0.0 3.2 0.00 0.00 0.00 92 1011.0
20260505092550 15 23 0.0 3.2 0.00 0.00 0.00 92 1011.0
20260505092041 15 45 0.0 3.2 0.00 0.00 0.00 92 1010.9
20260505091531 15 45 0.0 6.4 0.00 0.00 0.00 92 1010.8
20260505090510 15 45 3.2 6.4 0.00 0.00 0.00 91 1010.6
20260505090000 15 45 4.8 6.4 0.00 0.00 0.00 91 1010.6
20260505085450 15 45 3.2 6.4 0.00 0.00 0.00 91 1010.6
20260505084940 15 45 0.0 6.4 0.00 0.00 0.00 91 1010.6
20260505084429 15 45 3.2 6.4 0.00 0.00 0.00 91 1010.6
20260505083920 15 23 3.2 6.4 0.00 0.00 0.00 91 1010.5
20260505083410 15 45 3.2 6.4 0.00 0.00 0.00 91 1010.4
20260505082859 15 45 3.2 6.4 0.00 0.00 0.00 91 1010.4
20260505082349 15 45 3.2 9.7 0.00 0.00 0.00 91 1010.3
20260505081839 15 23 6.4 9.7 0.00 0.00 0.00 90 1010.3
20260505081328 15 23 6.4 9.7 0.00 0.00 0.00 90 1010.2
20260505080819 15 45 6.4 9.7 0.00 0.00 0.00 90 1010.2
20260505080308 15 23 6.4 11.3 0.00 0.00 0.00 90 1010.3
20260505074738 15 45 4.8 11.3 0.00 0.00 0.00 89 1010.3
20260505073718 15 45 6.4 12.9 0.00 0.00 0.00 88 1010.4
20260505072657 15 23 6.4 12.9 0.00 0.00 0.00 87 1010.4
20260505072147 15 45 6.4 12.9 0.00 0.00 0.00 87 1010.3
20260505071637 15 23 6.4 11.3 0.00 0.00 0.00 87 1010.3
20260505071127 15 45 8.0 11.3 0.00 0.00 0.00 87 1010.3
20260505070618 15 45 6.4 9.7 0.00 0.00 0.00 87 1010.4
20260505070107 14 45 4.8 6.4 0.00 0.00 0.00 86 1010.2
20260505065557 14 45 4.8 6.4 0.00 0.00 0.00 86 1010.3
20260505065046 14 23 3.2 6.4 0.00 0.00 0.00 85 1010.4
20260505064536 13 45 3.2 6.4 0.00 0.00 0.00 85 1010.5
20260505064026 13 68 4.8 9.7 0.00 0.00 0.00 85 1010.7
20260505063516 13 45 6.4 9.7 0.00 0.00 0.00 85 1010.6
20260505063006 13 45 3.2 6.4 0.00 0.00 0.00 84 1010.5
20260505062457 13 45 4.8 6.4 0.00 0.00 0.00 83 1010.5
20260505061946 13 68 3.2 6.4 0.00 0.00 0.00 83 1010.7
20260505061436 13 45 4.8 6.4 0.00 0.00 0.00 82 1010.8
20260505060926 13 68 4.8 6.4 0.00 0.00 0.00 82 1010.9
20260505060203 13 68 3.2 0.0 0.00 0.00 0.00 82 1011.0
20260505055628 13 45 3.2 6.4 0.00 0.00 0.00 82 1010.9
20260505055117 13 68 3.2 6.4 0.00 0.00 0.00 82 1010.9
20260505054607 13 68 3.2 6.4 0.00 0.00 0.00 82 1010.7
20260505054058 13 68 4.8 6.4 0.00 0.00 0.00 83 1010.7
20260505053547 13 90 6.4 6.4 0.00 0.00 0.00 83 1010.7
20260505053037 13 68 3.2 6.4 0.00 0.00 0.00 83 1010.7
20260505052526 13 45 3.2 6.4 0.00 0.00 0.00 82 1010.7
20260505041305 12 68 0.0 3.2 0.00 0.00 0.00 81 1010.9
20260505040754 12 45 0.0 6.4 0.00 0.00 0.00 81 1011.0
20260505040244 11 45 0.0 6.4 0.00 0.00 0.00 81 1010.9
20260505035734 11 45 3.2 6.4 0.00 0.00 0.00 81 1011.1
20260505035224 12 45 3.2 6.4 0.00 0.00 0.00 80 1011.2
20260505034714 12 68 3.2 6.4 0.00 0.00 0.00 79 1011.1
20260505034204 12 68 3.2 6.4 0.00 0.00 0.00 79 1011.3
20260505033654 12 68 3.2 6.4 0.00 0.00 0.00 79 1011.1
20260505033144 12 45 3.2 6.4 0.00 0.00 0.00 79 1011.2
20260505032633 12 45 3.2 6.4 0.00 0.00 0.00 79 1010.9
20260505032122 12 45 3.2 6.4 0.00 0.00 0.00 79 1011.0
20260505031103 12 45 3.2 6.4 0.00 0.00 0.00 79 1010.8
20260505030552 12 45 3.2 6.4 0.00 0.00 0.00 79 1010.8
20260505030043 12 45 3.2 6.4 0.00 0.00 0.00 79 1010.7
20260505025532 12 45 3.2 6.4 0.00 0.00 0.00 78 1010.6
20260505025023 12 68 3.2 6.4 0.00 0.00 0.00 78 1010.6
20260505024516 12 68 3.2 9.7 0.00 0.00 0.00 78 1010.7
20260505024001 12 68 6.4 9.7 0.00 0.00 0.00 78 1010.6
20260505023452 12 45 6.4 9.7 0.00 0.00 0.00 77 1010.6
20260505022941 13 45 3.2 11.3 0.00 0.00 0.00 76 1010.7
20260505021922 12 68 6.4 11.3 0.00 0.00 0.00 78 1010.5
20260505021411 12 68 6.4 11.3 0.00 0.00 0.00 77 1010.4
20260505020351 13 45 6.4 9.7 0.00 0.00 0.00 77 1010.5
20260505015841 13 45 6.4 9.7 0.00 0.00 0.00 77 1010.5
20260505015331 13 68 6.4 9.7 0.00 0.00 0.00 77 1010.6
20260505014820 12 45 4.8 9.7 0.00 0.00 0.00 77 1010.5
20260505014310 13 68 4.8 9.7 0.00 0.00 0.00 78 1010.5
20260505013801 12 45 3.2 9.7 0.00 0.00 0.00 78 1010.5
20260505012740 12 68 3.2 9.7 0.00 0.00 0.00 77 1010.4
20260505012230 12 68 3.2 9.7 0.00 0.00 0.00 77 1010.5
20260505011720 12 45 3.2 6.4 0.00 0.00 0.00 78 1010.4
20260505011210 12 45 3.2 6.4 0.00 0.00 0.00 78 1010.5
20260505010658 12 45 3.2 6.4 0.00 0.00 0.00 78 1010.3
20260505010150 12 68 3.2 6.4 0.00 0.00 0.00 78 1010.3
20260505005639 12 45 3.2 6.4 0.00 0.00 0.00 77 1010.2
20260505005129 13 45 4.8 6.4 0.00 0.00 0.00 76 1010.2
20260505004619 13 45 0.0 6.4 0.00 0.00 0.00 76 1010.1
20260505004109 13 45 4.8 9.7 0.00 0.00 0.00 77 1010.1
20260505003607 12 45 3.2 9.7 0.00 0.00 0.00 77 1009.8
20260505003048 13 23 3.2 9.7 0.00 0.00 0.00 75 1009.9
20260505002538 13 45 3.2 6.4 0.00 0.00 0.00 75 1009.7
20260505002028 13 45 4.8 6.4 0.00 0.00 0.00 76 1009.8
20260505001007 13 45 4.8 9.7 0.00 0.00 0.00 75 1009.8
20260505000458 13 45 6.4 9.7 0.00 0.00 0.00 74 1009.7
20260504235947 13 45 6.4 11.3 0.00 0.00 0.00 74 1009.7
20260504235437 13 45 6.4 11.3 0.00 0.00 0.00 74 1009.5
20260504234926 13 45 6.4 11.3 0.00 0.00 0.00 74 1009.5
20260504233353 13 45 6.4 9.7 0.00 0.00 0.00 74 1009.4
20260504232847 13 45 4.8 9.7 0.00 0.00 0.00 75 1009.3
20260504231830 13 45 4.8 9.7 0.00 0.00 0.00 74 1009.1
20260504231316 13 45 6.4 9.7 0.00 0.00 0.00 74 1009.1
20260504230805 13 45 4.8 9.7 0.00 0.00 0.00 74 1009.1
20260504230255 13 45 6.4 9.7 0.00 0.00 0.00 74 1008.8
20260504225746 14 68 0.0 9.7 0.00 0.00 0.00 72 1009.0
20260504225235 15 45 3.2 9.7 0.00 0.00 0.00 71 1009.0
20260504224726 14 68 3.2 9.7 0.00 0.00 0.00 71 1008.9
20260504224215 15 45 3.2 9.7 0.00 0.00 0.00 71 1008.8
20260504223706 15 45 1.6 9.7 0.00 0.00 0.00 69 1008.7
20260504223155 16 45 6.4 9.7 0.00 0.00 0.00 67 1008.6
20260504222134 16 45 4.8 9.7 0.00 0.00 0.00 66 1008.6
20260504221624 16 45 4.8 9.7 0.00 0.00 0.00 65 1008.6
20260504221113 16 68 3.2 6.4 0.00 0.00 0.00 66 1008.3
20260504220604 16 45 6.4 9.7 0.00 0.00 0.00 65 1008.4
20260504220053 16 45 6.4 9.7 0.00 0.00 0.00 64 1008.3
20260504215543 16 45 4.8 9.7 0.00 0.00 0.00 65 1008.1
20260504215033 16 45 6.4 9.7 0.00 0.00 0.00 64 1008.0
20260504214013 17 68 3.2 6.4 0.00 0.00 0.00 63 1008.0
20260504213504 18 45 1.6 3.2 0.00 0.00 0.00 61 1008.0
20260504212953 18 45 0.0 3.2 0.00 0.00 0.00 59 1007.9
20260504212442 19 45 0.0 3.2 0.00 0.00 0.00 57 1008.0
20260504211933 18 45 0.0 6.4 0.00 0.00 0.00 58 1008.0
20260504211423 19 45 0.0 6.4 0.00 0.00 0.00 57 1007.9
20260504210913 20 45 3.2 9.7 0.00 0.00 0.00 57 1008.2
20260504210402 20 45 4.8 9.7 0.00 0.00 0.00 56 1008.0
20260504205852 20 45 4.8 9.7 0.00 0.00 0.00 56 1008.0
20260504205345 20 45 4.8 9.7 0.00 0.00 0.00 56 1008.0
20260504204831 21 45 4.8 9.7 0.00 0.00 0.00 54 1008.1
20260504204322 21 45 6.4 9.7 0.00 0.00 0.00 53 1008.1
20260504203811 21 45 4.8 11.3 0.00 0.00 0.00 52 1008.1
20260504202241 22 23 6.4 11.3 0.00 0.00 0.00 49 1008.2
20260504201731 22 45 8.0 12.9 0.00 0.00 0.00 50 1008.2
20260504201222 22 45 6.4 14.5 0.00 0.00 0.00 48 1008.2